epoch,value
1656293028.785,100.000000
1656293029.785,100.000000
1656293030.785,100.000000
1656293031.785,100.000000
1656293032.785,100.000000
1656293033.785,100.000000
1656293034.785,100.000000
1656293035.785,100.000000
1656293036.785,100.000000
1656293037.785,100.000000
1656293038.785,100.000000
1656293039.785,100.000000
1656293040.785,100.000000
1656293041.785,100.000000
1656293042.785,100.000000
1656293043.785,100.000000
1656293044.785,100.000000
1656293045.785,100.000000
1656293046.785,100.000000
1656293047.785,100.000000
1656293048.785,100.000000
1656293049.785,100.000000
1656293050.785,100.000000
1656293051.785,100.000000
1656293052.785,100.000000
1656293053.785,100.000000
1656293054.785,100.000000
1656293055.785,100.000000
1656293056.785,100.000000
1656293057.785,100.000000
1656293058.785,100.000000
1656293059.785,100.000000
1656293060.785,100.000000
1656293061.785,100.000000
1656293062.785,99.009901
1656293063.785,100.000000
1656293064.784,100.000000
1656293065.785,100.000000
1656293066.785,100.000000
1656293067.785,100.000000
1656293068.785,100.000000
1656293069.785,100.000000
1656293070.785,100.000000
1656293071.785,100.000000
1656293072.785,100.000000
1656293073.785,100.000000
1656293074.785,100.000000
1656293075.785,100.000000
1656293076.785,100.000000
1656293077.785,99.000000
1656293078.785,100.000000
1656293079.785,100.000000
1656293080.785,100.000000
1656293081.785,100.000000
1656293082.785,100.000000
1656293083.785,100.000000
1656293084.785,100.000000
1656293085.785,100.000000
1656293086.785,100.000000
1656293087.785,100.000000
1656293088.785,100.000000
1656293089.785,99.000000
1656293090.785,100.000000
1656293091.785,100.000000
1656293092.785,100.000000
1656293093.785,100.000000
1656293094.785,99.009901
1656293095.785,100.000000
1656293096.785,100.000000
1656293097.785,100.000000
1656293098.785,100.000000
1656293099.785,100.000000
1656293100.785,100.000000
1656293101.785,100.000000
1656293102.785,100.000000
1656293103.785,100.000000
1656293104.785,100.000000
1656293105.785,100.000000
1656293106.785,100.000000
1656293107.785,100.000000
1656293108.785,100.000000
1656293109.785,98.000000
1656293110.785,100.000000
1656293111.785,100.000000
1656293112.785,100.000000
1656293113.785,100.000000
1656293114.785,100.000000
1656293115.785,100.000000
1656293116.785,100.000000
1656293117.785,100.000000
1656293118.785,100.000000
1656293119.785,100.000000
1656293120.784,100.000000
1656293121.785,100.000000
1656293122.785,100.000000
1656293123.785,100.000000
1656293124.785,100.000000
1656293125.785,100.000000
1656293126.785,100.000000
1656293127.785,100.000000
1656293128.785,100.000000
1656293129.785,100.000000
1656293130.785,100.000000
1656293131.785,99.000000
1656293132.785,100.000000
1656293133.785,100.000000
1656293134.785,99.000000
1656293135.785,100.000000
1656293136.784,100.000000
1656293137.785,100.000000
1656293138.785,100.000000
1656293139.785,100.000000
1656293140.785,100.000000
1656293141.785,100.000000
1656293142.785,99.009901
1656293143.785,100.000000
1656293144.784,100.000000
1656293145.785,100.000000
1656293146.785,100.000000
1656293147.785,100.000000
1656293148.785,100.000000
1656293149.785,100.000000
1656293150.785,100.000000
1656293151.785,100.000000
1656293152.784,100.000000
1656293153.785,100.000000
1656293154.785,100.000000
1656293155.785,100.000000
1656293156.785,100.000000
1656293157.785,100.000000
1656293158.785,100.000000
1656293159.785,100.000000
1656293160.785,100.000000
1656293161.785,100.000000
1656293162.785,99.009901
1656293163.785,98.000000
1656293164.785,98.989899
1656293165.785,98.000000
1656293166.785,98.000000
1656293167.785,98.989899
1656293168.785,100.000000
1656293169.785,100.000000
1656293170.785,100.000000
1656293171.785,100.000000
1656293172.785,98.019802
1656293173.785,100.000000
1656293174.785,100.000000
1656293175.785,100.000000
1656293176.785,100.000000
1656293177.785,100.000000
1656293178.785,100.000000
1656293179.785,100.000000
1656293180.785,99.000000
1656293181.785,100.000000
1656293182.785,100.000000
1656293183.785,100.000000
1656293184.784,100.000000
1656293185.785,99.009901
1656293186.785,100.000000
1656293187.785,99.009901
1656293188.785,100.000000
1656293189.785,100.000000
1656293190.785,99.000000
1656293191.785,100.000000
1656293192.785,100.000000
1656293193.785,100.000000
1656293194.785,100.000000
1656293195.785,100.000000
1656293196.785,100.000000
1656293197.785,99.000000
1656293198.785,100.000000
1656293199.785,100.000000
1656293200.784,100.000000
1656293201.785,99.000000
1656293202.785,100.000000
1656293203.785,100.000000
1656293204.785,100.000000
1656293205.785,100.000000
1656293206.785,100.000000
1656293207.785,100.000000
1656293208.785,100.000000
1656293209.785,100.000000
1656293210.785,100.000000
1656293211.785,99.009901
1656293212.785,100.000000
1656293213.785,100.000000
1656293214.785,100.000000
1656293215.785,100.000000
1656293216.785,100.000000
1656293217.785,100.000000
1656293218.785,100.000000
1656293219.785,100.000000
1656293220.785,99.009901
1656293221.785,100.000000
1656293222.785,100.000000
1656293223.785,100.000000
1656293224.785,100.000000
1656293225.785,100.000000
1656293226.785,100.000000
1656293227.785,100.000000
1656293228.785,100.000000
1656293229.785,100.000000
1656293230.785,99.000000
1656293231.785,100.000000
1656293232.784,100.000000
1656293233.785,99.009901
1656293234.785,100.000000
1656293235.785,100.000000
1656293236.785,100.000000
1656293237.785,100.000000
1656293238.785,100.000000
1656293239.785,100.000000
1656293240.784,100.000000
1656293241.785,100.000000
1656293242.785,100.000000
1656293243.785,99.009901
1656293244.785,100.000000
1656293245.785,100.000000
1656293246.785,100.000000
1656293247.785,100.000000
1656293248.784,100.000000
1656293249.785,100.000000
1656293250.785,100.000000
1656293251.785,99.000000
1656293252.785,99.009901
1656293253.785,100.000000
1656293254.785,100.000000
1656293255.785,100.000000
1656293256.784,100.000000
1656293257.785,100.000000
1656293258.785,100.000000
1656293259.785,100.000000
1656293260.785,100.000000
1656293261.785,99.009901
1656293262.785,100.000000
1656293263.785,100.000000
1656293264.784,100.000000
1656293265.785,100.000000
1656293266.785,100.000000
1656293267.785,100.000000
1656293268.785,100.000000
1656293269.785,100.000000
1656293270.785,99.009901
1656293271.785,100.000000
1656293272.784,100.000000
1656293273.785,100.000000
1656293274.785,100.000000
1656293275.785,100.000000
1656293276.785,100.000000
1656293277.785,100.000000
1656293278.785,100.000000
1656293279.785,100.000000
1656293280.784,100.000000
1656293281.785,100.000000
1656293282.785,100.000000
1656293283.785,100.000000
1656293284.785,100.000000
1656293285.785,100.000000
1656293286.785,100.000000
1656293287.785,100.000000
1656293288.785,100.000000
1656293289.785,100.000000
1656293290.785,100.000000
1656293291.785,100.000000
1656293292.785,100.000000
1656293293.785,100.000000
1656293294.785,100.000000
1656293295.785,100.000000
1656293296.785,100.000000
1656293297.785,100.000000
1656293298.785,100.000000
1656293299.785,99.009901
1656293300.785,100.000000
1656293301.785,100.000000
1656293302.785,100.000000
1656293303.785,100.000000
1656293304.785,100.000000
1656293305.785,100.000000
1656293306.785,100.000000
1656293307.785,100.000000
1656293308.785,100.000000
1656293309.785,100.000000
1656293310.785,99.000000
1656293311.785,100.000000
1656293312.784,100.000000
1656293313.785,99.009901
1656293314.785,100.000000
1656293315.785,100.000000
1656293316.785,100.000000
1656293317.785,100.000000
1656293318.785,100.000000
1656293319.785,100.000000
1656293320.785,100.000000
1656293321.785,100.000000
1656293322.785,100.000000
1656293323.785,100.000000
1656293324.785,100.000000
1656293325.785,100.000000
1656293326.785,100.000000
1656293327.785,100.000000
1656293328.784,100.000000
1656293329.785,100.000000
1656293330.785,100.000000
1656293331.785,100.000000
1656293332.785,100.000000
1656293333.785,100.000000
1656293334.785,100.000000
1656293335.785,100.000000
1656293336.785,100.000000
1656293337.785,100.000000
1656293338.785,100.000000
1656293339.785,99.009901
1656293340.785,100.000000
1656293341.785,100.000000
1656293342.785,100.000000
1656293343.785,100.000000
1656293344.785,100.000000
1656293345.785,100.000000
1656293346.785,100.000000
1656293347.785,100.000000
1656293348.785,100.000000
1656293349.785,100.000000
1656293350.785,100.000000
1656293351.785,99.000000
1656293352.785,100.000000
1656293353.785,100.000000
1656293354.785,100.000000
1656293355.785,100.000000
1656293356.785,100.000000
1656293357.785,100.000000
1656293358.785,100.000000
1656293359.785,99.009901
1656293360.784,100.000000
1656293361.785,93.000000
1656293362.785,10.204082
1656293363.803,36.274510
1656293364.784,19.587629
1656293365.801,43.877551
1656293366.784,41.489362
1656293367.786,15.151515
1656293368.784,50.000000
1656293369.784,24.242424
1656293370.784,0.000000
1656293371.785,0.000000
1656293372.785,0.990099
1656293373.785,21.428571
1656293374.785,5.154639
1656293375.811,0.000000
1656293376.784,0.000000
1656293377.784,5.000000
1656293378.784,16.000000
1656293379.784,0.000000
1656293380.785,8.823529
1656293381.789,0.000000
1656293382.785,7.000000
1656293383.807,16.190476
1656293384.784,75.000000
1656293385.800,26.530612
1656293386.784,12.765957
1656293387.785,63.541667
1656293388.784,2.020202
1656293389.785,7.920792
1656293390.785,4.000000
1656293391.807,7.920792
1656293392.788,0.000000
1656293393.784,4.040404
1656293394.785,68.131868
1656293395.791,41.052632
1656293396.855,20.388350
1656293397.784,3.260870
1656293398.845,33.333333
1656293399.784,17.000000
1656293400.784,0.000000
1656293401.784,25.438596
1656293402.784,9.090909
1656293403.784,26.804124
1656293404.784,0.000000
1656293405.785,0.000000
1656293406.787,0.000000
1656293407.784,0.000000
1656293408.825,0.000000
1656293409.811,8.910891
1656293410.785,26.041667
1656293411.784,0.000000
1656293412.785,0.000000
1656293413.784,38.613861
1656293414.791,44.791667
1656293415.784,51.000000
1656293416.784,0.000000
1656293417.784,7.070707
1656293418.785,43.877551
1656293419.785,22.881356
1656293420.784,34.579439
1656293421.784,7.070707
1656293422.784,21.000000
1656293423.785,32.608696
1656293424.784,30.303030
1656293425.843,36.956522
1656293426.784,24.242424
1656293427.785,0.000000
1656293428.791,0.000000
1656293429.784,4.040404
1656293430.784,8.000000
1656293431.785,0.000000
1656293432.828,0.000000
1656293433.784,0.000000
1656293434.784,13.131313
1656293435.785,3.000000
1656293436.786,0.000000
1656293437.784,0.000000
1656293438.785,0.000000
1656293439.784,0.000000
1656293440.784,0.000000
1656293441.784,0.000000
1656293442.787,0.000000
1656293443.784,13.000000
1656293444.785,25.000000
1656293445.791,17.346939
1656293446.784,0.000000
1656293447.785,0.000000
1656293448.784,18.947368
1656293449.785,1.980198
1656293450.784,2.020202
1656293451.784,5.050505
1656293452.784,3.030303
1656293453.786,31.914894
1656293454.784,19.587629
1656293455.786,61.616162
1656293456.785,25.000000
1656293457.784,9.000000
1656293458.784,14.285714
1656293459.784,18.750000
1656293460.784,22.222222
1656293461.784,4.040404
1656293462.787,0.000000
1656293463.784,0.000000
1656293464.785,0.000000
1656293465.785,0.000000
1656293466.785,0.000000
1656293467.792,3.061224
1656293468.785,16.161616
1656293469.784,61.702128
1656293470.805,0.000000
1656293471.784,7.920792
1656293472.797,37.000000
1656293473.784,46.315789
1656293474.791,51.546392
1656293475.785,58.585859
1656293476.784,28.000000
1656293477.784,0.000000
1656293478.791,7.142857
1656293479.785,33.333333
1656293480.785,9.000000
1656293481.784,28.723404
1656293482.784,13.541667
1656293483.784,0.000000
1656293484.784,3.000000
1656293485.784,20.833333
1656293486.788,1.000000
1656293487.784,0.000000
1656293488.784,0.000000
1656293489.784,0.000000
1656293490.795,0.000000
1656293491.784,0.000000
1656293492.784,0.000000
1656293493.784,2.970297
1656293494.785,7.216495
1656293495.826,10.784314
1656293496.784,5.000000
1656293497.786,14.000000
1656293498.785,4.040404
1656293499.801,40.816327
1656293500.784,0.000000
1656293501.784,0.000000
1656293502.784,0.000000
1656293503.784,0.000000
1656293504.785,0.000000
1656293505.831,0.000000
1656293506.784,0.000000
1656293507.784,0.000000
1656293508.784,0.000000
1656293509.784,1.000000
1656293510.784,0.000000
1656293511.784,0.000000
1656293512.794,0.000000
1656293513.799,6.060606
1656293514.817,0.990099
1656293515.784,0.000000
1656293516.784,1.010101
1656293517.824,25.000000
1656293518.784,19.791667
1656293519.784,9.473684
1656293520.784,0.990099
1656293521.784,12.244898
1656293522.785,0.000000
1656293523.784,40.816327
1656293524.790,12.244898
1656293525.785,0.000000
1656293526.786,6.000000
1656293527.786,0.000000
1656293528.784,0.000000
1656293529.786,4.000000
1656293530.784,27.272727
1656293531.785,18.556701
1656293532.790,8.510638
1656293533.784,20.430108
1656293534.784,30.097087
1656293535.786,37.113402
1656293536.784,19.444444
1656293537.785,0.000000
1656293538.784,0.000000
1656293539.784,0.000000
1656293540.784,0.000000
1656293541.784,0.000000
1656293542.785,0.000000
1656293543.784,0.000000
1656293544.805,0.000000
1656293545.822,0.000000
1656293546.785,0.000000
1656293547.784,0.000000
1656293548.786,0.000000
1656293549.784,0.000000
1656293550.784,0.000000
1656293551.784,0.000000
1656293552.784,0.000000
1656293553.784,0.000000
1656293554.784,0.000000
1656293555.786,0.000000
1656293556.785,0.000000
1656293557.784,0.000000
1656293558.784,0.000000
1656293559.784,1.010101
1656293560.785,0.000000
1656293561.787,0.000000
1656293562.784,4.000000
1656293563.820,3.000000
1656293564.784,0.000000
1656293565.814,0.000000
1656293566.785,0.000000
1656293567.784,0.000000
1656293568.784,0.000000
1656293569.784,0.000000
1656293570.784,11.000000
1656293571.785,26.530612
1656293572.784,25.000000
1656293573.784,11.224490
1656293574.805,2.970297
1656293575.784,14.000000
1656293576.784,0.000000
1656293577.784,15.463918
1656293578.784,48.979592
1656293579.784,28.282828
1656293580.784,0.000000
1656293581.785,0.000000
1656293582.784,1.000000
1656293583.785,0.000000
1656293584.785,0.000000
1656293585.785,0.000000
1656293586.811,0.000000
1656293587.784,0.000000
1656293588.784,0.000000
1656293589.785,0.000000
1656293590.784,0.000000
1656293591.784,0.000000
1656293592.784,0.000000
1656293593.784,0.000000
1656293594.802,35.000000
1656293595.818,62.500000
1656293596.784,15.000000
1656293597.789,19.587629
1656293598.784,13.541667
1656293599.785,0.000000
1656293600.784,0.000000
1656293601.784,0.000000
1656293602.784,0.000000
1656293603.784,0.000000
1656293604.785,0.000000
1656293605.788,0.000000
1656293606.785,0.000000
1656293607.786,0.000000
1656293608.784,0.000000
1656293609.787,0.000000
1656293610.785,0.000000
1656293611.793,7.142857
1656293612.786,0.000000
1656293613.784,0.000000
1656293614.784,0.000000
1656293615.784,0.000000
1656293616.785,0.000000
1656293617.811,25.000000
1656293618.803,0.000000
1656293619.785,14.285714
1656293620.784,50.505051
1656293621.784,5.050505
1656293622.786,13.265306
1656293623.794,24.038462
1656293624.784,0.000000
1656293625.785,0.000000
1656293626.789,0.000000
1656293627.812,0.000000
1656293628.784,0.000000
1656293629.784,11.881188
1656293630.785,1.020408
1656293631.784,10.416667
1656293632.815,16.494845
1656293633.805,6.930693
1656293634.784,0.000000
1656293635.784,0.000000
1656293636.785,1.020408
1656293637.786,17.000000
1656293638.784,19.801980
1656293639.808,14.000000
1656293640.784,41.666667
1656293641.785,18.367347
1656293642.784,34.042553
1656293643.784,21.649485
1656293644.784,12.371134
1656293645.797,18.947368
1656293646.785,7.000000
1656293647.784,0.000000
1656293648.787,0.000000
1656293649.784,0.000000
1656293650.784,1.980198
1656293651.795,4.000000
1656293652.784,18.556701
1656293653.785,28.260870
1656293654.784,40.816327
1656293655.784,0.000000
1656293656.796,0.000000
1656293657.784,23.157895
1656293658.784,31.632653
1656293659.784,16.326531
1656293660.784,2.061856
1656293661.784,0.000000
1656293662.796,0.000000
1656293663.785,0.000000
1656293664.790,0.000000
1656293665.786,0.000000
1656293666.785,4.000000
1656293667.786,34.736842
1656293668.784,5.102041
1656293669.784,35.106383
1656293670.784,25.000000
1656293671.784,16.494845
1656293672.784,13.402062
1656293673.785,9.375000
1656293674.786,10.204082
1656293675.815,11.881188
1656293676.784,0.000000
1656293677.784,0.000000
1656293678.784,0.000000
1656293679.784,0.000000
1656293680.784,0.000000
1656293681.785,0.000000
1656293682.784,0.000000
1656293683.784,0.000000
1656293684.784,0.000000
1656293685.784,0.000000
1656293686.784,0.990099
1656293687.788,0.000000
1656293688.789,0.000000
1656293689.785,4.040404
1656293690.796,16.666667
1656293691.784,7.368421
1656293692.784,13.684211
1656293693.784,12.500000
1656293694.785,18.085106
1656293695.784,22.105263
1656293696.787,36.842105
1656293697.786,18.181818
1656293698.784,23.469388
1656293699.879,0.000000
1656293700.784,12.371134
1656293701.784,7.000000
1656293702.807,15.841584
1656293703.806,21.428571
1656293704.784,41.414141
1656293705.788,10.204082
1656293706.784,19.000000
1656293707.786,0.000000
1656293708.785,0.000000
1656293709.845,12.121212
1656293710.785,0.000000
1656293711.784,0.000000
1656293712.796,23.958333
1656293713.784,17.894737
1656293714.784,16.666667
1656293715.784,23.157895
1656293716.813,17.346939
1656293717.784,17.346939
1656293718.784,13.402062
1656293719.784,24.210526
1656293720.785,30.612245
1656293721.787,19.387755
1656293722.799,32.673267
1656293723.784,30.612245
1656293724.788,2.020202
1656293725.785,39.583333
1656293726.784,36.000000
1656293727.784,25.263158
1656293728.820,0.000000
1656293729.785,0.000000
1656293730.785,0.000000
1656293731.784,0.000000
1656293732.809,0.000000
1656293733.784,0.000000
1656293734.784,0.000000
1656293735.784,0.000000
1656293736.784,3.061224
1656293737.784,23.809524
1656293738.784,7.070707
1656293739.784,35.922330
1656293740.784,4.081633
1656293741.784,0.000000
1656293742.784,2.040816
1656293743.792,0.000000
1656293744.785,8.163265
1656293745.784,0.000000
1656293746.784,0.000000
1656293747.784,2.061856
1656293748.784,4.081633
1656293749.784,0.000000
1656293750.784,0.000000
1656293751.784,0.000000
1656293752.784,0.000000
1656293753.784,0.000000
1656293754.787,0.000000
1656293755.784,0.000000
1656293756.807,0.000000
1656293757.784,7.000000
1656293758.784,10.309278
1656293759.789,2.020202
1656293760.785,0.000000
1656293761.784,0.000000
1656293762.784,0.000000
1656293763.784,0.000000
1656293764.787,18.556701
1656293765.787,9.708738
1656293766.799,33.673469
1656293767.785,31.578947
1656293768.801,20.618557
1656293769.784,3.030303
1656293770.785,9.803922
1656293771.784,3.000000
1656293772.785,35.000000
1656293773.784,5.940594
1656293774.784,19.047619
1656293775.784,19.387755
1656293776.799,6.122449
1656293777.786,4.950495
1656293778.784,5.050505
1656293779.785,0.000000
1656293780.784,0.000000
1656293781.785,0.000000
1656293782.831,0.000000
1656293783.785,30.612245
1656293784.784,37.373737
1656293785.784,45.360825
1656293786.785,24.752475
1656293787.784,40.816327
1656293788.784,20.430108
1656293789.814,15.151515
1656293790.784,9.183673
1656293791.784,23.469388
1656293792.784,17.894737
1656293793.800,18.750000
1656293794.784,11.224490
1656293795.807,8.163265
1656293796.784,23.958333
1656293797.784,22.340426
1656293798.784,13.402062
1656293799.784,16.129032
1656293800.785,0.990099
1656293801.785,11.000000
1656293802.784,9.183673
1656293803.786,70.212766
1656293804.789,73.737374
1656293805.784,69.387755
1656293806.784,57.142857
1656293807.784,0.000000
1656293808.785,14.141414
1656293809.785,25.000000
1656293810.785,54.945055
1656293811.784,21.212121
1656293812.784,21.428571
1656293813.785,0.000000
1656293814.788,27.083333
1656293815.785,17.346939
1656293816.784,18.556701
1656293817.784,21.212121
1656293818.785,0.000000
1656293819.789,0.000000
1656293820.784,3.960396
1656293821.785,33.333333
1656293822.788,21.276596
1656293823.784,0.000000
1656293824.804,5.940594
1656293825.784,2.040816
1656293826.798,35.483871
1656293827.784,36.842105
1656293828.784,36.263736
1656293829.851,2.000000
1656293830.785,28.865979
1656293831.789,0.000000
1656293832.784,0.000000
1656293833.787,0.000000
1656293834.784,6.000000
1656293835.784,0.000000
1656293836.787,0.000000
1656293837.792,0.000000
1656293838.821,0.000000
1656293839.844,0.000000
1656293840.784,0.000000
1656293841.785,0.000000
1656293842.784,0.000000
1656293843.784,0.000000
1656293844.784,0.000000
1656293845.784,0.000000
1656293846.803,0.000000
1656293847.784,17.525773
1656293848.784,13.265306
1656293849.839,32.000000
1656293850.784,10.000000
1656293851.784,3.000000
1656293852.786,7.142857
1656293853.784,35.051546
1656293854.787,33.673469
1656293855.785,43.298969
1656293856.785,1.030928
1656293857.784,4.040404
1656293858.791,28.421053
1656293859.785,32.978723
1656293860.785,43.617021
1656293861.785,7.619048
1656293862.784,14.432990
1656293863.785,7.368421
1656293864.786,41.176471
1656293865.789,38.144330
1656293866.784,6.122449
1656293867.784,1.010101
1656293868.784,14.851485
1656293869.784,37.373737
1656293870.784,0.000000
1656293871.784,0.000000
1656293872.784,0.000000
1656293873.784,0.000000
1656293874.784,0.000000
1656293875.784,0.000000
1656293876.785,0.000000
1656293877.784,0.000000
1656293878.784,0.000000
1656293879.786,1.010101
1656293880.792,4.040404
1656293881.785,0.000000
1656293882.784,0.000000
1656293883.785,0.000000
1656293884.784,40.816327
1656293885.784,28.000000
1656293886.785,13.402062
1656293887.797,0.000000
1656293888.784,0.000000
1656293889.793,0.000000
1656293890.784,9.000000
1656293891.785,15.151515
1656293892.784,41.836735
1656293893.815,17.000000
1656293894.786,27.272727
1656293895.818,2.020202
1656293896.784,50.000000
1656293897.784,60.416667
1656293898.784,9.615385
1656293899.784,0.000000
1656293900.784,0.000000
1656293901.784,3.000000
1656293902.784,17.346939
1656293903.784,5.102041
1656293904.784,34.736842
1656293905.787,25.510204
1656293906.784,30.841121
1656293907.784,21.428571
1656293908.784,34.736842
1656293909.789,12.244898
1656293910.784,34.579439
1656293911.792,15.555556
1656293912.784,0.000000
1656293913.785,10.526316
1656293914.784,2.061856
1656293915.820,0.000000
1656293916.785,1.000000
1656293917.785,1.000000
1656293918.785,13.402062
1656293919.784,6.122449
1656293920.784,3.030303
1656293921.784,0.000000
1656293922.789,0.000000
1656293923.785,0.000000
1656293924.784,0.000000
1656293925.790,13.131313
1656293926.830,25.663717
1656293927.785,33.628319
1656293928.900,64.035088
1656293929.814,87.096774
1656293930.784,8.247423
1656293931.784,30.303030
1656293932.785,0.000000
1656293933.784,0.000000
1656293934.785,0.000000
1656293935.785,17.592593
1656293936.842,39.583333
1656293937.784,24.742268
1656293938.784,10.204082
1656293939.785,51.923077
1656293940.784,16.000000
1656293941.784,15.625000
1656293942.784,25.252525
1656293943.784,10.891089
1656293944.784,0.000000
1656293945.784,0.000000
1656293946.784,0.000000
1656293947.788,0.000000
1656293948.788,0.000000
1656293949.811,8.080808
1656293950.788,0.000000
1656293951.784,30.208333
1656293952.784,32.291667
1656293953.784,14.141414
1656293954.784,14.000000
1656293955.785,23.469388
1656293956.784,34.343434
1656293957.787,27.000000
1656293958.784,14.583333
1656293959.785,9.183673
1656293960.784,18.181818
1656293961.785,19.354839
1656293962.784,10.526316
1656293963.784,39.583333
1656293964.784,34.693878
1656293965.784,18.367347
1656293966.784,8.000000
1656293967.784,24.742268
1656293968.784,14.432990
1656293969.784,12.000000
1656293970.784,24.742268
1656293971.864,3.000000
1656293972.784,1.000000
1656293973.784,0.000000
1656293974.784,0.000000
1656293975.788,7.142857
1656293976.784,14.583333
1656293977.784,13.265306
1656293978.785,0.000000
1656293979.784,0.000000
1656293980.784,0.000000
1656293981.785,3.030303
1656293982.784,0.990099
1656293983.785,0.000000
1656293984.784,0.000000
1656293985.784,5.102041
1656293986.784,0.000000
1656293987.823,0.000000
1656293988.788,0.000000
1656293989.785,0.000000